Storm Lake, IA

11:44 PM CDT on June 26, 2017 (GMT -0500)
Storm Lake Municipal

Weather History for KSLB - February, 2014

Change the Weather History Date:

Tuesday, February 11, 2014

  Actual Average Record
Temperature  
Mean Temperature 4 °F -  
Max Temperature 15 °F 31 °F 42 °F (2005)
Min Temperature -7 °F 16 °F -7 °F (2014)
Degree Days  
Heating Degree Days 61    
Moisture  
Dew Point 0 °F    
Average Humidity 73    
Maximum Humidity 85    
Minimum Humidity 62    
Precipitation  
Precipitation 0.00 in - - ()
Sea Level Pressure  
Sea Level Pressure 30.22 in    
Wind  
Wind Speed 13 mph (South)    
Max Wind Speed 24 mph    
Max Gust Speed 30 mph    
Visibility 10 miles    
Events      
Averages and records for this station are not official NWS values.
T = Trace of Precipitation, MM = Missing Value Source: NWS Daily Summary

Daily Weather History Graph

Daily Weather History Graph

Search for Another Location

Airport or City:

Trip Planner

Search our weather history database for the weather conditions in past years. The results will help you decide how hot, cold, wet, or windy it might be!

Date:

Astronomy

Feb. 11, 2014 Rise Set
Actual Time 7:23 AM CST 5:47 PM CST
Civil Twilight 6:54 AM CST 6:16 PM CST
Nautical Twilight 6:20 AM CST 6:50 PM CST
Astronomical Twilight 5:48 AM CST 7:22 PM CST
Moon 3:07 PM CST (2/11) 5:02 AM CST (2/11)
Length of Visible Light 11h 22m
Length of Day
10h 24m
Waxing Gibbous, 91% of the Moon is Illuminated
Feb 11
Waxing Gibbous
Feb 14
Full
Feb 22
Last Quarter
Mar 1
New
Mar 8
First Quarter

Hourly Weather History & Observations

Time (CST) Temp. Windchill Dew Point Humidity Pressure Visibility Wind Dir Wind Speed Gust Speed Precip Events Conditions
12:15 AM -5.8 °F -22.4 °F -11.2 °F 77% 30.42 in 10.0 mi South 9.2 mph - N/A   Clear
12:35 AM -5.8 °F -19.9 °F -11.2 °F 77% 30.41 in 10.0 mi South 6.9 mph - N/A   Clear
12:55 AM -5.8 °F -19.9 °F -11.2 °F 77% 30.40 in 10.0 mi South 6.9 mph - N/A   Clear
1:15 AM -5.8 °F -21.2 °F -11.2 °F 77% 30.40 in 10.0 mi South 8.1 mph - N/A   Clear
1:35 AM -5.8 °F -21.2 °F -11.2 °F 77% 30.40 in 10.0 mi South 8.1 mph - N/A   Clear
1:55 AM -5.8 °F -18.4 °F -11.2 °F 77% 30.39 in 10.0 mi SSE 5.8 mph - N/A   Clear
2:15 AM -5.8 °F -21.2 °F -11.2 °F 77% 30.39 in 10.0 mi SSE 8.1 mph - N/A   Clear
2:35 AM -5.8 °F -21.2 °F -9.4 °F 84% 30.38 in 10.0 mi SSE 8.1 mph - N/A   Clear
2:55 AM -5.8 °F -23.4 °F -11.2 °F 77% 30.38 in 10.0 mi SSE 10.4 mph - N/A   Clear
3:15 AM -5.8 °F -19.9 °F -11.2 °F 77% 30.38 in 10.0 mi SSE 6.9 mph - N/A   Clear
3:35 AM -5.8 °F -21.2 °F -11.2 °F 77% 30.38 in 10.0 mi SSE 8.1 mph - N/A   Clear
3:55 AM -5.8 °F -21.2 °F -11.2 °F 77% 30.38 in 10.0 mi SSE 8.1 mph - N/A   Clear
4:15 AM -5.8 °F -21.2 °F -11.2 °F 77% 30.37 in 10.0 mi SSE 8.1 mph - N/A   Clear
4:35 AM -7.6 °F -24.6 °F -13.0 °F 77% 30.37 in 10.0 mi SSE 9.2 mph - N/A   Clear
4:55 AM -5.8 °F -21.2 °F -11.2 °F 77% 30.36 in 10.0 mi SSE 8.1 mph - N/A   Clear
5:15 AM -5.8 °F -19.9 °F -11.2 °F 77% 30.37 in 10.0 mi SSE 6.9 mph - N/A   Scattered Clouds
5:35 AM -4.0 °F -19.0 °F -9.4 °F 78% 30.36 in 10.0 mi SE 8.1 mph - N/A   Overcast
5:55 AM -4.0 °F -20.2 °F -9.4 °F 78% 30.35 in 10.0 mi SSE 9.2 mph - N/A   Overcast
6:15 AM -2.2 °F -18.0 °F -7.6 °F 78% 30.35 in 10.0 mi SSE 9.2 mph - N/A   Overcast
6:35 AM -4.0 °F -17.8 °F -7.6 °F 85% 30.35 in 10.0 mi SSE 6.9 mph - N/A   Overcast
6:55 AM -2.2 °F -18.9 °F -7.6 °F 78% 30.35 in 10.0 mi South 10.4 mph - N/A   Overcast
7:15 AM -2.2 °F -18.9 °F -7.6 °F 78% 30.35 in 10.0 mi South 10.4 mph - N/A   Overcast
7:35 AM -0.4 °F -16.7 °F -5.8 °F 78% 30.34 in 10.0 mi South 10.4 mph - N/A   Overcast
7:55 AM -0.4 °F -17.6 °F -5.8 °F 78% 30.34 in 10.0 mi South 11.5 mph - N/A   Overcast
8:15 AM -0.4 °F -17.6 °F -5.8 °F 78% 30.34 in 10.0 mi South 11.5 mph - N/A   Mostly Cloudy
8:35 AM 1.4 °F -14.5 °F -4.0 °F 78% 30.34 in 10.0 mi South 10.4 mph - N/A   Mostly Cloudy
8:55 AM 3.2 °F -14.6 °F -2.2 °F 78% 30.32 in 10.0 mi South 13.8 mph - N/A   Overcast
9:15 AM 5.0 °F -14.2 °F -0.4 °F 78% 30.32 in 10.0 mi South 17.3 mph - N/A   Partly Cloudy
9:35 AM 6.8 °F -12.4 °F -0.4 °F 72% 30.31 in 10.0 mi South 18.4 mph - N/A   Clear
9:55 AM 8.6 °F -9.5 °F -0.4 °F 67% 30.31 in 10.0 mi South 17.3 mph - N/A   Partly Cloudy
10:15 AM 8.6 °F -8.9 °F -0.4 °F 67% 30.30 in 10.0 mi South 16.1 mph 24.2 mph N/A   Clear
10:35 AM 8.6 °F -12.3 °F 1.4 °F 73% 30.29 in 10.0 mi South 24.2 mph - N/A   Clear
10:55 AM 10.4 °F -9.1 °F 1.4 °F 67% 30.29 in 10.0 mi South 21.9 mph - N/A   Clear
11:15 AM 10.4 °F -7.7 °F 1.4 °F 67% 30.29 in 10.0 mi South 18.4 mph 24.2 mph N/A   Clear
11:35 AM 12.2 °F -6.7 °F 1.4 °F 62% 30.28 in 10.0 mi South 21.9 mph - N/A   Partly Cloudy
11:55 AM 12.2 °F -6.3 °F 1.4 °F 62% 30.26 in 10.0 mi South 20.7 mph 26.5 mph N/A   Mostly Cloudy
12:15 PM 14.0 °F -3.9 °F 3.2 °F 62% 30.25 in 10.0 mi South 20.7 mph - N/A   Overcast
12:35 PM 14.0 °F -3.4 °F 3.2 °F 62% 30.23 in 10.0 mi South 19.6 mph - N/A   Overcast
12:55 PM 15.8 °F -1.5 °F 5.0 °F 62% 30.22 in 10.0 mi South 20.7 mph 26.5 mph N/A   Overcast
1:15 PM 15.8 °F -1.9 °F 5.0 °F 62% 30.20 in 10.0 mi South 21.9 mph - N/A   Overcast
1:35 PM 15.8 °F -1.9 °F 5.0 °F 62% 30.19 in 10.0 mi South 21.9 mph - N/A   Overcast
1:55 PM 15.8 °F -1.9 °F 5.0 °F 62% 30.16 in 10.0 mi South 21.9 mph - N/A   Overcast
2:15 PM 15.8 °F -1.9 °F 5.0 °F 62% 30.15 in 10.0 mi South 21.9 mph - N/A   Overcast
2:35 PM 15.8 °F -1.1 °F 6.8 °F 68% 30.14 in 10.0 mi South 19.6 mph - N/A   Overcast
2:55 PM 15.8 °F -2.3 °F 6.8 °F 68% 30.13 in 10.0 mi South 23.0 mph - N/A   Overcast
3:15 PM 15.8 °F -2.7 °F 6.8 °F 68% 30.12 in 10.0 mi South 24.2 mph - N/A   Overcast
3:35 PM 15.8 °F -1.9 °F 6.8 °F 68% 30.11 in 10.0 mi South 21.9 mph - N/A   Overcast
3:55 PM 15.8 °F -1.9 °F 6.8 °F 68% 30.11 in 10.0 mi South 21.9 mph - N/A   Overcast
4:15 PM 15.8 °F -2.7 °F 6.8 °F 68% 30.10 in 10.0 mi South 24.2 mph - N/A   Overcast
4:35 PM 15.8 °F -2.7 °F 6.8 °F 68% 30.09 in 10.0 mi South 24.2 mph 29.9 mph N/A   Overcast
4:55 PM 15.8 °F -2.7 °F 6.8 °F 68% 30.08 in 10.0 mi South 24.2 mph 29.9 mph N/A   Overcast
5:15 PM 15.8 °F -2.7 °F 6.8 °F 68% 30.07 in 10.0 mi South 24.2 mph - N/A   Overcast
5:35 PM 15.8 °F -1.5 °F 8.6 °F 73% 30.07 in 10.0 mi South 20.7 mph 29.9 mph N/A   Overcast
5:55 PM 15.8 °F -1.5 °F 8.6 °F 73% 30.06 in 10.0 mi South 20.7 mph - N/A   Overcast
6:15 PM 15.8 °F -1.1 °F 8.6 °F 73% 30.05 in 10.0 mi South 19.6 mph - N/A   Overcast
6:35 PM 15.8 °F -2.3 °F 8.6 °F 73% 30.05 in 10.0 mi South 23.0 mph 29.9 mph N/A   Overcast
6:55 PM 15.8 °F -2.3 °F 8.6 °F 73% 30.04 in 10.0 mi South 23.0 mph 29.9 mph N/A   Overcast
7:15 PM 15.8 °F -1.9 °F 8.6 °F 73% 30.03 in 10.0 mi South 21.9 mph 29.9 mph N/A   Overcast
7:35 PM 15.8 °F 0.3 °F 8.6 °F 73% 30.05 in 10.0 mi South 16.1 mph 24.2 mph N/A   Overcast
7:55 PM 15.8 °F -0.6 °F 8.6 °F 73% 30.04 in 10.0 mi South 18.4 mph - N/A   Overcast
8:15 PM 15.8 °F -0.6 °F 8.6 °F 73% 30.04 in 10.0 mi South 18.4 mph - N/A   Overcast
8:35 PM 14.0 °F -2.5 °F 8.6 °F 79% 30.04 in 10.0 mi South 17.3 mph - N/A   Scattered Clouds
8:55 PM 14.0 °F -3.4 °F 8.6 °F 79% 30.04 in 10.0 mi South 19.6 mph - N/A   Clear
9:15 PM 14.0 °F -4.7 °F 8.6 °F 79% 30.04 in 10.0 mi South 23.0 mph - N/A   Scattered Clouds
9:35 PM 14.0 °F -4.7 °F 8.6 °F 79% 30.03 in 10.0 mi South 23.0 mph - N/A   Overcast
9:55 PM 14.0 °F -3.9 °F 8.6 °F 79% 30.04 in 10.0 mi SSW 20.7 mph - N/A   Overcast
10:15 PM 15.8 °F -2.3 °F 8.6 °F 73% 30.03 in 10.0 mi SSW 23.0 mph - N/A   Overcast
10:35 PM 15.8 °F -2.3 °F 6.8 °F 68% 30.04 in 10.0 mi SSW 23.0 mph - N/A   Mostly Cloudy
10:55 PM 15.8 °F -2.3 °F 6.8 °F 68% 30.03 in 10.0 mi SSW 23.0 mph - N/A   Overcast
11:15 PM 15.8 °F -0.2 °F 6.8 °F 68% 30.03 in 10.0 mi SSW 17.3 mph 25.3 mph N/A   Overcast
11:35 PM 15.8 °F -1.5 °F 6.8 °F 68% 30.02 in 10.0 mi SSW 20.7 mph 26.5 mph N/A   Overcast
11:55 PM 15.8 °F -2.3 °F 6.8 °F 68% 30.01 in 10.0 mi SSW 23.0 mph 28.8 mph N/A   Overcast